TimePDT,TemperatureF,Dew PointF,Humidity,Sea Level PressureIn,VisibilityMPH,Wind Direction,Wind SpeedMPH,Gust SpeedMPH,PrecipitationIn,Events,Conditions,WindDirDegrees,DateUTC
12:53 AM,57.9,23.0,26,30.17,10.0,NE,11.5,19.6,N/A,,Clear,40,2012-10-05 07:53:00
1:53 AM,57.0,23.0,27,30.16,10.0,NE,9.2,-,N/A,,Clear,40,2012-10-05 08:53:00
2:53 AM,55.9,23.0,28,30.16,10.0,NE,10.4,-,N/A,,Clear,40,2012-10-05 09:53:00
3:53 AM,57.0,23.0,27,30.16,10.0,NNE,8.1,-,N/A,,Clear,30,2012-10-05 10:53:00
4:53 AM,52.0,24.1,34,30.16,10.0,North,10.4,-,N/A,,Clear,10,2012-10-05 11:53:00
5:53 AM,52.0,24.1,34,30.15,10.0,North,9.2,-,N/A,,Clear,10,2012-10-05 12:53:00
6:53 AM,50.0,25.0,38,30.15,10.0,North,8.1,-,N/A,,Clear,10,2012-10-05 13:53:00
7:53 AM,52.0,26.1,37,30.16,10.0,North,8.1,-,N/A,,Clear,10,2012-10-05 14:53:00
8:53 AM,61.0,23.0,23,30.17,10.0,NE,10.4,-,N/A,,Clear,40,2012-10-05 15:53:00
9:53 AM,66.0,19.9,17,30.17,10.0,NE,15.0,19.6,N/A,,Clear,50,2012-10-05 16:53:00
10:53 AM,68.0,19.9,16,30.17,10.0,ENE,15.0,21.9,N/A,,Clear,60,2012-10-05 17:53:00
11:53 AM,70.0,21.0,16,30.16,10.0,ENE,11.5,26.5,N/A,,Clear,60,2012-10-05 18:53:00
12:53 PM,72.0,19.9,14,30.14,10.0,ENE,12.7,20.7,N/A,,Clear,70,2012-10-05 19:53:00
1:53 PM,73.9,19.0,13,30.12,10.0,NE,16.1,20.7,N/A,,Clear,40,2012-10-05 20:53:00
2:53 PM,75.0,17.1,11,30.11,10.0,NE,12.7,23.0,N/A,,Clear,50,2012-10-05 21:53:00
3:53 PM,75.0,17.1,11,30.10,10.0,NE,16.1,-,N/A,,Clear,50,2012-10-05 22:53:00
4:53 PM,73.0,16.0,11,30.10,10.0,NE,17.3,23.0,N/A,,Clear,50,2012-10-05 23:53:00
5:53 PM,71.1,17.1,13,30.10,10.0,NE,15.0,-,N/A,,Clear,50,2012-10-06 00:53:00
6:53 PM,66.0,19.0,17,30.10,10.0,NE,11.5,21.9,N/A,,Clear,40,2012-10-06 01:53:00
7:53 PM,63.0,19.9,19,30.12,10.0,NNE,12.7,-,N/A,,Clear,30,2012-10-06 02:53:00
8:53 PM,61.0,19.0,20,30.12,10.0,NE,10.4,-,N/A,,Clear,40,2012-10-06 03:53:00
9:53 PM,59.0,18.0,20,30.14,10.0,NE,8.1,-,N/A,,Clear,40,2012-10-06 04:53:00
10:53 PM,57.9,19.0,22,30.14,10.0,NNE,6.9,-,N/A,,Clear,30,2012-10-06 05:53:00
11:53 PM,55.0,21.0,27,30.15,10.0,NNE,5.8,-,N/A,,Clear,20,2012-10-06 06:53:00